Stations météo

réclame
Mon MeteoGroup
Nikkaluokta, Suède (2036): Température de l'air & dewpoint: 10.06.2019 01:00:00 - 16.06.2019 01:00:00 (CEST)Nikkaluokta, Suède (2036): Vitesse du vent & gusts: 10.06.2019 01:00:00 - 16.06.2019 01:00:00 (CEST)Nikkaluokta, Suède (2036): Direction du vent: 10.06.2019 01:00:00 - 16.06.2019 01:00:00 (CEST)Nikkaluokta, Suède (2036): reduced air pressure: 10.06.2019 01:00:00 - 16.06.2019 01:00:00 (CEST)Nikkaluokta, Suède (2036): visibility: 10.06.2019 01:00:00 - 16.06.2019 01:00:00 (CEST)Nikkaluokta, Suède (2036): Quantités de précipitations: 10.06.2019 01:00:00 - 16.06.2019 01:00:00 (CEST)
Date & Time tt [°C] td [°C] ff [km/h] ff [knt] fx [km/h] fx [knt] dd ppp [hPa] vv [km] rr [mm]
16.06.2019 01:00:00 - - - - - - - - - -
16.06.2019 00:00:00 8,8 4,0 8 4 11 6 SSW 1015,1 50 0,0
15.06.2019 23:00:00 13,3 5,0 5 3 14 8 NNW 1014,1 50 0,0
15.06.2019 22:00:00 15,5 2,6 8 5 16 9 N 1013,7 50 0,0
15.06.2019 21:00:00 18,0 2,3 5 3 16 8 NW 1013,0 50 0,0
15.06.2019 20:00:00 19,0 1,0 11 6 32 17 NW 1013,0 35 0,0
15.06.2019 19:00:00 19,4 1,4 17 9 31 17 NNW 1013,1 40 0,0
15.06.2019 18:00:00 21,0 -0,9 10 5 29 16 WNW 1013,1 42 0,0
15.06.2019 17:00:00 21,5 0,1 14 7 26 14 WNW 1013,1 46 0,0
15.06.2019 16:00:00 22,0 1,1 16 9 26 14 W 1012,8 40 0,0
15.06.2019 15:00:00 22,5 2,0 13 7 24 13 WSW 1012,9 41 0,0
15.06.2019 14:00:00 21,1 2,4 9 5 14 8 E 1013,4 30 0,0
15.06.2019 13:00:00 20,2 3,0 4 2 10 5 ENE 1013,8 35 0,0
15.06.2019 12:00:00 19,1 3,7 7 4 11 6 ENE 1014,5 30 0,0
15.06.2019 11:00:00 16,7 2,3 5 3 8 5 NNE 1015,5 34 0,0
15.06.2019 10:00:00 15,6 1,3 4 2 9 5 ENE 1016,1 40 0,0
15.06.2019 09:00:00 13,2 0,6 4 2 7 4 ENE 1016,8 41 0,0
15.06.2019 08:00:00 12,0 -0,9 5 3 9 5 E 1017,4 44 0,0
15.06.2019 07:00:00 11,4 -1,1 4 2 8 5 E 1017,8 49 0,0
15.06.2019 06:00:00 10,7 -0,2 3 2 10 6 E 1018,3 50 0,0
15.06.2019 05:00:00 9,1 0,5 4 2 9 5 ESE 1018,9 49 0,0
15.06.2019 04:00:00 5,6 2,1 5 3 6 4 SSW 1019,6 50 0,0
15.06.2019 03:00:00 2,4 0,9 5 3 12 7 SW 1020,3 50 0,0
15.06.2019 02:00:00 5,8 3,3 7 4 11 6 ENE 1019,3 50 0,0
15.06.2019 01:00:00 8,5 2,3 5 3 12 7 SE 1018,3 50 0,0
15.06.2019 00:00:00 10,1 3,8 7 4 29 15 ESE 1017,4 50 0,0
14.06.2019 23:00:00 13,5 3,6 12 6 26 14 E 1016,3 50 0,0
14.06.2019 22:00:00 15,4 2,5 11 6 22 12 ESE 1015,3 50 0,0
14.06.2019 21:00:00 17,2 4,2 9 5 24 13 ENE 1014,5 50 0,0
14.06.2019 20:00:00 18,0 4,9 9 5 24 13 E 1014,0 40 0,0
14.06.2019 19:00:00 19,1 4,8 13 7 23 12 E 1013,8 44 0,0
14.06.2019 18:00:00 21,0 5,8 10 6 18 10 E 1013,6 40 0,0
14.06.2019 17:00:00 20,8 -1,7 7 4 13 7 ENE 1014,0 44 0,0
14.06.2019 16:00:00 21,3 0,5 5 3 11 6 E 1014,2 38 0,0
14.06.2019 15:00:00 20,2 1,6 9 5 12 7 ENE 1015,2 27 0,0
14.06.2019 14:00:00 19,8 -0,3 6 3 14 8 ENE 1015,8 44 0,0
14.06.2019 13:00:00 18,8 -1,7 6 3 14 7 ENE 1016,6 33 0,0
14.06.2019 12:00:00 18,4 1,0 6 3 12 7 E 1017,3 35 0,0
14.06.2019 11:00:00 17,2 0,8 8 5 15 8 E 1017,7 36 0,0
14.06.2019 10:00:00 16,0 4,7 8 5 11 6 ENE 1017,9 41 0,0
14.06.2019 09:00:00 14,8 3,3 6 4 10 5 ENE 1018,7 39 0,0
14.06.2019 08:00:00 13,2 3,8 4 2 7 4 E 1019,8 44 0,0
14.06.2019 07:00:00 11,7 4,0 4 2 6 4 NNW 1020,0 47 0,0
14.06.2019 06:00:00 10,8 2,9 0 0 6 3 N 1020,9 39 0,0
14.06.2019 05:00:00 8,4 4,0 4 2 7 4 N 1021,9 49 0,0
14.06.2019 04:00:00 6,1 3,9 5 3 9 5 NNW 1022,8 44 0,0
14.06.2019 03:00:00 2,4 2,0 6 3 8 5 W 1024,1 50 0,0
14.06.2019 02:00:00 1,7 0,8 5 3 7 4 W 1024,4 50 0,0
14.06.2019 01:00:00 3,5 2,3 5 3 10 5 S 1024,3 50 0,0
14.06.2019 00:00:00 4,7 2,1 5 3 9 5 SSE 1024,0 50 0,0
13.06.2019 23:00:00 8,7 3,1 2 1 11 6 NW 1022,9 43 0,0
13.06.2019 22:00:00 12,5 0,3 8 4 16 9 S 1021,9 50 0,0
13.06.2019 21:00:00 13,6 0,2 8 4 20 11 S 1021,6 50 0,0
13.06.2019 20:00:00 14,1 0,3 12 6 21 11 SSE 1021,3 49 0,0
13.06.2019 19:00:00 15,2 0,6 8 5 22 12 SSE 1021,3 47 0,0
13.06.2019 18:00:00 15,4 0,0 9 5 22 12 S 1021,4 50 0,0
13.06.2019 17:00:00 15,4 1,5 9 5 21 12 ENE 1021,5 41 0,0
13.06.2019 16:00:00 16,1 0,6 8 4 29 15 ESE 1021,7 39 0,0
13.06.2019 15:00:00 14,8 -0,1 13 7 27 15 S 1022,5 45 0,0
13.06.2019 14:00:00 14,7 -0,6 12 6 31 17 S 1022,5 44 0,0
13.06.2019 13:00:00 15,1 -1,1 9 5 27 15 SSE 1022,5 29 0,0
13.06.2019 12:00:00 13,5 -2,5 11 6 27 14 SSE 1023,5 39 0,0
13.06.2019 11:00:00 14,3 -1,0 14 8 27 15 SE 1023,1 50 0,0
13.06.2019 10:00:00 13,7 -1,1 14 7 27 14 ESE 1023,4 32 0,0
13.06.2019 09:00:00 13,5 -0,2 11 6 20 11 SW 1023,6 38 0,0
13.06.2019 08:00:00 11,1 1,3 4 2 10 5 ENE 1024,2 40 0,0
13.06.2019 07:00:00 11,0 1,2 3 2 23 13 W 1024,2 47 0,0
13.06.2019 06:00:00 10,4 2,7 5 3 18 10 E 1024,2 50 0,0
13.06.2019 05:00:00 9,8 2,9 11 6 18 10 ENE 1024,3 43 0,0
13.06.2019 04:00:00 8,4 2,4 10 5 17 9 ENE 1024,7 50 0,0
13.06.2019 03:00:00 9,0 1,2 5 3 16 9 S 1024,7 50 0,0
13.06.2019 02:00:00 9,0 1,6 8 4 19 10 ESE 1024,8 50 0,0
13.06.2019 01:00:00 8,5 1,2 3 2 15 8 NW 1024,8 50 0,0
13.06.2019 00:00:00 9,6 1,5 5 3 32 17 NE 1024,4 50 0,0
12.06.2019 23:00:00 11,1 0,5 16 8 34 18 S 1023,6 50 0,0
12.06.2019 22:00:00 12,2 0,9 17 9 31 17 S 1023,6 50 0,0
12.06.2019 21:00:00 13,6 1,6 9 5 23 12 S 1023,2 50 0,0
12.06.2019 20:00:00 12,5 1,2 9 5 17 9 S 1023,6 50 0,0
12.06.2019 19:00:00 13,2 0,2 8 4 14 8 S 1023,6 46 0,0
12.06.2019 18:00:00 13,6 0,2 4 2 25 13 W 1023,8 45 0,0
12.06.2019 17:00:00 15,0 -1,1 9 5 21 12 SSW 1023,8 40 0,0
12.06.2019 16:00:00 14,4 -1,3 10 6 27 14 WSW 1024,6 30 0,0
12.06.2019 15:00:00 14,7 0,2 11 6 26 14 SW 1025,0 46 0,0
12.06.2019 14:00:00 13,5 -0,5 8 4 34 18 SW 1025,6 25 0,0
12.06.2019 13:00:00 12,5 -0,7 16 8 26 14 SW 1026,3 50 0,0
12.06.2019 12:00:00 12,5 -0,4 6 3 23 13 ENE 1026,8 29 0,0
12.06.2019 11:00:00 10,7 -1,1 4 2 16 8 W 1027,7 38 0,0
12.06.2019 10:00:00 10,6 0,6 7 4 10 6 E 1028,1 35 0,0
12.06.2019 09:00:00 8,5 0,7 6 4 8 5 E 1029,0 39 0,0
12.06.2019 08:00:00 7,4 -0,1 3 2 8 4 ENE 1029,6 41 0,0
12.06.2019 07:00:00 6,2 -0,3 5 3 10 5 E 1030,2 44 0,0
12.06.2019 06:00:00 4,8 0,7 3 1 7 4 NNE 1030,7 46 0,0
12.06.2019 05:00:00 3,7 1,6 4 2 7 4 NNW 1031,3 46 0,0
12.06.2019 04:00:00 1,7 -0,4 2 1 7 4 W 1032,0 50 0,0
12.06.2019 03:00:00 -0,9 -1,2 4 2 9 5 WSW 1032,5 50 0,0
12.06.2019 02:00:00 -0,1 -1,1 5 3 - - WSW 1032,4 50 0,0
12.06.2019 01:00:00 -0,4 -1,4 4 2 8 5 SSW 1032,2 50 0,0
12.06.2019 00:00:00 2,3 -0,6 5 3 20 11 SSW 1031,7 50 0,0
11.06.2019 23:00:00 4,4 -0,4 4 2 14 8 SE 1030,9 50 0,0
11.06.2019 22:00:00 7,3 -1,7 9 5 21 11 NNW 1030,1 50 0,0
11.06.2019 21:00:00 8,9 -1,0 10 5 26 14 WNW 1029,4 49 0,0
11.06.2019 20:00:00 9,7 -1,4 16 9 24 13 NNW 1028,9 48 0,0
11.06.2019 19:00:00 9,9 -0,3 14 8 26 14 NNW 1028,7 44 0,0
11.06.2019 18:00:00 10,6 -1,5 12 6 21 12 NNW 1028,4 50 0,0
11.06.2019 17:00:00 8,9 -0,4 13 7 23 13 NNW 1028,5 50 0,0
11.06.2019 16:00:00 9,4 -1,9 8 5 16 9 NW 1028,2 47 0,0
11.06.2019 15:00:00 9,5 -4,1 4 2 14 8 N 1028,2 30 0,0
11.06.2019 14:00:00 9,4 -2,9 5 3 13 7 N 1028,3 44 0,0
11.06.2019 13:00:00 8,4 -3,2 5 3 10 5 NNE 1028,6 35 0,0
11.06.2019 12:00:00 7,4 -4,7 3 2 10 5 WSW 1028,7 44 0,0
11.06.2019 11:00:00 7,1 -2,6 3 2 11 6 NE 1028,5 38 0,0
11.06.2019 10:00:00 6,4 -0,8 6 3 10 6 NNW 1028,3 25 0,0
11.06.2019 09:00:00 3,7 -1,7 2 1 9 5 N 1028,4 48 0,0
11.06.2019 08:00:00 3,5 -1,1 4 2 9 5 ENE 1028,1 38 0,0
11.06.2019 07:00:00 1,9 -0,7 4 2 11 6 ESE 1027,9 50 0,0
11.06.2019 06:00:00 1,6 0,3 4 2 13 7 E 1027,0 40 0,0
11.06.2019 05:00:00 1,0 0,9 5 3 9 5 SW 1026,4 3,7 0,1
11.06.2019 04:00:00 1,4 -0,1 3 2 10 6 SSW 1025,6 23 0,0
11.06.2019 03:00:00 1,3 0,1 6 4 18 10 SE 1024,9 27 0,0
11.06.2019 02:00:00 1,3 0,6 7 4 22 12 SE 1024,4 33 0,2
11.06.2019 01:00:00 1,7 1,6 11 6 22 12 ESE 1023,5 7 0,2
11.06.2019 00:00:00 2,6 2,5 6 3 9 5 W 1022,2 19 0,1
10.06.2019 23:00:00 3,0 1,5 4 2 7 4 SW 1021,1 18 0,1
10.06.2019 22:00:00 3,0 1,5 5 3 11 6 SSE 1020,2 50 0,0
10.06.2019 21:00:00 3,1 1,6 6 4 16 9 SSE 1019,2 50 0,0
10.06.2019 20:00:00 3,7 1,4 8 4 24 13 E 1018,1 34 0,2
10.06.2019 19:00:00 3,7 2,1 13 7 22 12 ENE 1017,3 14 0,3
10.06.2019 18:00:00 4,4 3,2 11 6 23 12 ENE 1015,7 25 0,3
10.06.2019 17:00:00 4,2 3,3 5 3 17 9 SSE 1014,5 11 0,4
10.06.2019 16:00:00 4,5 3,3 9 5 20 11 ESE 1013,1 16 0,2
10.06.2019 15:00:00 4,4 3,4 10 5 20 11 SE 1011,9 8 0,0
10.06.2019 14:00:00 4,3 4,0 9 5 21 11 SE 1010,9 10 0,1
10.06.2019 13:00:00 3,9 3,3 13 7 24 13 ESE 1009,9 11 0,2
10.06.2019 12:00:00 4,2 3,8 14 7 26 14 ESE 1008,4 20 0,7
10.06.2019 11:00:00 4,6 4,5 14 7 32 17 ESE 1006,8 26 2,1
10.06.2019 10:00:00 5,8 5,5 14 8 32 17 ESE 1005,0 14 0,9
10.06.2019 09:00:00 8,6 8,3 2 1 16 9 E 1002,9 13 1,0
10.06.2019 08:00:00 7,9 7,6 5 3 18 10 ESE 1002,6 12 1,6
10.06.2019 07:00:00 7,7 7,4 9 5 16 9 ESE 1002,2 15 0,9
10.06.2019 06:00:00 7,4 7,1 10 5 19 10 ESE 1002,1 13 1,0
10.06.2019 05:00:00 7,4 7,1 10 5 16 9 E 1002,2 11 4,3
10.06.2019 04:00:00 7,6 7,3 10 5 16 8 E 1002,8 7 2,5
10.06.2019 03:00:00 7,7 7,4 3 1 6 3 NW 1002,8 13 1,0
10.06.2019 02:00:00 7,7 7,4 0 0 11 6 N 1003,2 8 2,2
10.06.2019 01:00:00 7,8 7,5 8 4 13 7 ESE 1003,9 7 1,8

tt = Température de l'air
td = dewpoint
ff = Vitesse du vent
fx = gusts
dd = Direction du vent
ppp = reduced air pressure
vv = visibility
rr = Quantités de précipitations

stations d'obs. à proximité